Location: Cottage Gardens
(34.1061°N, 117.2689°W)
Time: 02:09:52
(UTC+00:00)

Daily predictions for brighter satellites

Satellite Brightness Start Highest point End
(mag) Time Altitude Azimuth Time Altitude Azimuth Time Altitude Azimuth
Cosmos 2195 Rocket 4.5 03:22:01 10° S 03:28:05 76° E 03:34:13 10° N
Cosmos 1674 3.5 03:26:55 10° SSE 03:29:51 26° E 03:32:48 10° NNE
Cosmos 1766 4.3 03:27:12 10° NNE 03:30:22 25° ENE 03:33:30 10° SE
Cosmos 1666 Rocket 3.7 03:28:20 10° N 03:32:37 57° E 03:36:54 10° SSE
COSMOS 2406 3.2 03:30:06 10° SSW 03:35:50 78° ESE 03:41:36 10° NNE
NOSS 3-4 (A) 4.1 03:30:02 10° NNW 03:37:23 87° WSW 03:45:44 10° SSE
NOSS 3-4 (C) 4.1 03:30:05 10° NNW 03:37:25 88° WSW 03:45:43 10° SSE
CSL-04 Debris 4.3 03:33:33 10° SSE 03:38:53 63° ENE 03:44:14 10° N
SPOT 1/Viking Rocket 3.9 03:34:29 10° S 03:39:34 67° WSW 03:44:41 10° NNW
Cosmos 1092 Rocket 4.0 03:33:31 10° S 03:39:49 78° E 03:46:10 10° N
Cosmos 1980 Rocket 2.6 03:34:32 10° N 03:40:04 50° ENE 03:45:31 10° SE
FALCON 9 R/B 3.3 03:38:59 10° WSW 03:42:11 27° SSW 03:49:10 10° SE
Resurs 01 Rocket 1.6 03:47:39 10° SSE 03:52:03 88° ENE 03:56:29 10° NNW
USA 234 3.2 03:48:22 10° NE 03:54:54 70° SE 04:01:23 10° SW
Terra 3.8 03:55:14 10° E 03:57:27 13° ENE 03:59:40 10° NE
Lacrosse 5 rocket 3.6 03:58:05 10° WNW 04:01:02 19° WSW 04:03:54 10° SSW
Cosmos 1470 3.7 03:59:01 10° NNE 04:02:14 28° E 04:04:12 18° SE
IRIDIUM 103 4.4 03:58:54 10° N 04:04:04 60° E 04:09:11 10° SSE
CZ-4 R/B 3.4 04:01:24 10° SSW 04:04:44 27° W 04:08:09 10° NW
Cosmos 2026 Rocket 4.5 03:58:42 10° SSW 04:04:50 64° W 04:10:54 10° N
KORONAS-FOTON 3.6 04:03:27 10° S 04:07:08 73° E 04:10:51 10° N
CZ-4B R/B 3.9 04:06:59 10° S 04:12:05 50° W 04:17:14 10° NNW
Cosmos 1842 3.1 04:09:14 10° S 04:12:53 83° W 04:16:33 10° N
IRIDIUM 106 4.3 04:17:07 10° N 04:22:22 88° W 04:27:28 11° S
IRS-1C Rocket 4.4 04:26:32 23° SE 04:29:35 49° ENE 04:34:38 10° N
In-Cosmos 22 4.2 04:25:09 11° S 04:30:28 64° E 04:35:57 10° NNE
Cosmos 540 Rocket 3.5 04:26:05 10° N 04:31:12 64° ENE 04:34:01 26° SE
Cosmos 2360 Rocket 4.2 04:28:19 10° NNE 04:31:18 14° NE 04:34:00 11° E
Cosmos 1707 3.4 04:34:11 10° SSW 04:37:40 48° W 04:41:10 10° N
Cosmos 968 Rocket 4.3 04:37:09 27° ESE 04:38:13 30° E 04:42:40 10° NE
Okean-O 2.8 04:36:10 20° S 04:39:09 69° WSW 04:43:33 10° NNW
MOS 1 Rocket 4.5 04:38:37 25° ESE 04:40:44 34° ENE 04:45:30 10° N
Cosmos 1741 Rocket 4.2 04:38:46 24° SSE 04:41:37 48° ESE 04:46:41 10° NNE
SL-16 R/B 3.0 04:37:30 10° N 04:42:45 37° ENE 04:45:05 26° ESE
SeaSat 1 3.2 04:42:03 26° ESE 04:44:04 38° ENE 04:48:37 10° N
Cosmos 2333 Rocket 4.0 04:41:01 10° NNE 04:44:46 17° NE 04:47:07 14° E
Cosmos 2369 4.2 04:41:06 10° NNW 04:46:41 56° WSW 04:50:32 20° S
USA 245 3.4 04:47:48 41° E 04:48:07 43° ENE 04:51:50 10° N
Atlas Centaur 2 3.0 04:43:08 10° W 04:51:12 67° S 04:56:31 24° ESE
Tiangong -2.0 04:51:33 10° WNW 04:54:41 62° NNE 04:54:54 59° NE
SPOT 5 2.7 04:53:26 31° S 04:55:23 69° WSW 04:59:43 10° NNW
Cosmos 2228 Rocket 3.4 04:55:59 43° SE 04:56:46 47° E 05:01:09 10° NNE
Cosmos 381 Rocket 4.4 04:51:51 10° NNW 04:58:13 90° E 05:01:22 32° SSE
Okean O Rocket 3.9 04:56:09 10° SW 04:59:21 20° W 05:02:33 10° NW
ASTRO E2 3.9 04:56:57 10° WSW 04:58:37 24° SW 04:58:37 24° SW
IRS-1A Rocket 4.2 04:57:29 31° SSE 05:00:14 87° WSW 05:05:46 10° NNW
MetOp-B 4.3 04:57:48 26° S 05:00:50 67° WSW 05:06:11 10° NNW
Cosmos 1356 Rocket 3.5 05:01:42 51° ESE 05:01:58 52° E 05:06:03 10° NNE
SL-08 ROCKET BODY 4.4 04:58:26 21° S 05:02:44 90° SE 05:08:51 10° N
Cosmos 1400 Rocket 3.0 05:03:49 34° SSW 05:05:20 64° W 05:09:11 10° N
Cosmos 1869 Rocket 3.5 05:01:42 10° N 05:06:10 87° W 05:07:23 48° S
ERS-1 Rocket 2.9 05:10:39 42° S 05:12:24 80° WSW 05:17:27 10° NNW
ATLAS CENTAUR R/B 2.1 05:11:14 14° SW 05:13:53 43° WNW 05:17:15 10° NNE
Meteor 1-12 Rocket 4.4 05:08:00 10° N 05:13:59 64° E 05:15:46 44° SE
S3M 4.0 05:10:18 10° N 05:16:41 88° W 05:19:23 37° S
Cosmos 1300 3.5 05:14:38 10° N 05:17:15 38° NE 05:17:15 38° NE
Cosmos 1441 Rocket 4.2 05:15:52 10° NNW 05:19:12 36° W 05:19:50 33° WSW
Cosmos 2266 Rocket 4.5 05:15:24 15° SSW 05:20:32 59° W 05:26:51 10° N
Cosmos 841 Rocket 3.4 05:15:41 10° NNW 05:20:57 78° ENE 05:22:02 57° SE
Meteor 1-22 Rocket 4.3 05:16:17 10° N 05:22:02 82° W 05:24:08 42° S
Cosmos 1655 Rocket 4.0 05:19:20 30° S 05:22:44 85° W 05:29:11 10° N
Cosmos 1980 Rocket 4.4 05:19:51 10° WNW 05:23:32 18° W 05:27:12 10° SW
Spot 2 Rocket 3.4 05:22:35 54° S 05:23:46 86° WSW 05:28:52 10° NNW
Cosmos 2322 Rocket 2.5 05:20:07 10° N 05:25:41 54° ENE 05:26:46 47° ESE
Aureole 3 3.9 05:27:56 45° NE 05:27:56 45° NE 05:31:19 10° NNE
Cosmos 1862 Rocket 3.4 05:32:16 88° SSW 05:32:19 90° WSW 05:36:44 10° N
Terra 2.3 05:33:36 45° SW 05:34:31 53° W 05:39:08 10° NNW
Meteor 2-10 Rocket 3.5 05:31:06 10° N 05:36:36 80° W 05:37:35 60° SSW
Cosmos 2278 4.2 05:31:58 10° NNW 05:37:30 53° WSW 05:38:57 42° SSW
Meteor 1-21 4.3 05:36:20 44° SSW 05:38:15 79° W 05:44:05 10° N
Cosmos 1244 Rocket 4.5 05:41:01 56° SE 05:41:53 61° E 05:48:03 10° NNE
Landsat 5 3.6 05:38:18 10° N 05:42:09 71° NW 05:42:09 71° NW
Okean 3 3.7 05:44:40 64° NNW 05:44:40 64° NNW 05:48:14 10° N
Ariane Rocket 3.5 05:47:41 46° SW 05:48:32 51° W 05:53:28 10° NNW
Cosmos 2219 Rocket 3.2 05:46:03 10° N 05:51:09 33° ENE 05:51:37 33° ENE
SJ 16-02 1.8 05:53:27 57° WNW 05:53:27 57° WNW 05:57:35 10° N
Cosmos 1346 Rocket 4.0 05:58:31 10° NNW 06:01:14 38° NW 06:01:14 38° NW
COSMOS 2455 3.9 06:07:48 31° ENE 06:07:48 31° ENE 06:11:30 10° NE
ARIANE 5 R/B 4.1 06:08:40 28° NE 06:08:40 28° NE 06:11:22 10° N
RESURS DK-1 3.7 06:04:01 10° NW 06:06:46 34° WNW 06:06:46 34° WNW
CZ-4C R/B 4.0 06:13:09 15° NE 06:13:09 15° NE 06:14:06 10° NE
SL-08 R/B 4.2 06:10:00 79° SSE 06:10:19 83° E 06:16:26 10° N
Cosmos 2360 Rocket 2.2 06:10:11 10° NNW 06:15:45 72° W 06:15:45 72° W
Cosmos 1455 4.4 06:16:34 10° N 06:17:48 20° N 06:17:48 20° N
Cosmos 1733 Rocket 4.5 06:16:22 10° NNW 06:19:50 32° WNW 06:19:50 32° WNW
SeaSat 1 4.2 06:21:45 22° WSW 06:21:45 22° WSW 06:25:20 10° NW
Okean 1-7 4.2 06:24:31 39° NW 06:24:31 39° NW 06:27:47 10° N
ATLAS 2AS CENTAUR R/B 2.4 06:17:44 10° NNW 06:24:30 87° ENE 06:24:53 80° SE
SL-16 R/B 3.7 06:22:03 10° NW 06:26:32 25° WSW 06:26:57 25° WSW
Cosmos 2333 Rocket 2.5 06:23:46 10° NNW 06:29:07 60° W 06:29:07 60° W
GP-B 4.3 06:27:53 10° N 06:30:43 40° N 06:30:43 40° N
USA 281 3.3 06:32:33 60° E 06:33:05 62° ENE 06:39:34 10° NNW
Atlas Centaur 2 3.6 06:32:31 10° W 06:38:43 41° SW 06:38:43 41° SW
Cosmos 2227 Rocket 4.1 06:52:28 18° ENE 06:52:28 18° ENE 06:54:26 10° NE
Cosmos 2237 Rocket 4.1 06:46:37 10° NNE 06:50:26 18° ENE 06:51:07 18° ENE
Cosmos 2322 4.1 06:47:34 10° NNW 06:52:24 57° NNE 06:52:24 57° NNE
Cosmos 1745 Rocket 4.0 06:53:20 73° WNW 06:53:20 73° WNW 06:59:37 10° N
ALOS 2 4.4 07:00:33 27° NNE 07:00:33 27° NNE 07:02:53 10° N
Cosmos 2322 Rocket 4.2 07:05:40 10° WNW 07:08:34 17° W 07:08:34 17° W
Nadezhda 1 Rocket 4.2 07:03:21 10° NNW 07:09:03 65° WNW 07:09:03 65° WNW
Cosmos 839 Rocket 4.4 07:03:20 10° NW 07:08:45 52° W 07:08:45 52° W
Cosmos 2297 Rocket 2.9 07:11:25 49° NE 07:11:25 49° NE 07:15:30 10° NNE
CENTAUR R/B 3.7 07:20:44 27° ENE 07:20:44 27° ENE 07:24:03 10° NE
ATLAS 2A CENTAUR R/B 4.3 06:47:31 10° WSW 07:21:46 60° S 07:22:17 59° S
Meteor 2-5 Rocket 4.2 07:24:15 63° N 07:24:15 63° N 07:29:07 10° N
COSMOS 2428 3.4 07:29:00 10° NNW 07:33:09 48° NW 07:33:09 48° NW
Cosmos 2219 Rocket 3.8 07:30:07 10° NW 07:33:20 25° WNW 07:33:20 25° WNW
Cosmos 2263 Rocket 4.0 07:45:28 20° ENE 07:45:28 20° ENE 07:47:54 10° NE
COSMOS 2455 4.3 07:50:52 28° WNW 07:51:55 29° NW 07:57:08 10° N
NOSS 0 Rocket 4.3 07:48:59 10° NNW 07:54:00 58° NW 07:54:00 58° NW
CZ-4C R/B 3.8 07:58:11 22° NW 07:58:18 22° NW 08:02:16 10° N
NOSS 3-2 (A) 4.3 08:06:19 35° NE 08:06:19 35° NE 08:09:44 10° NE
Cosmos 2184 Rocket 4.1 08:07:25 72° N 08:07:25 72° N 08:13:06 10° N
SL-12 R/B(2) 4.0 08:08:53 76° SW 08:09:39 85° WNW 08:18:48 10° NNE
SL-4 R/B 4.4 08:17:57 10° NNW 08:19:46 22° NNW 08:19:46 22° NNW
Cosmos 2154 Rocket 4.1 08:24:17 70° NNW 08:24:17 70° NNW 08:29:52 10° N
SL-16 R/B 3.4 08:22:33 10° N 08:27:42 34° ENE 08:28:24 33° ENE
H-2A R/B 4.2 08:26:11 10° N 08:28:00 21° NNW 08:28:00 21° NNW
Cosmos 2082 4.3 08:32:57 51° NE 08:32:57 51° NE 08:37:18 10° NNE
Cosmos 2227 Rocket 3.2 08:34:15 38° NW 08:34:15 38° NW 08:39:03 10° N
Cosmos 2237 Rocket 3.2 08:29:18 10° NNW 08:32:55 38° NW 08:32:55 38° NW
IDEFIX/ARIANE 42P 4.3 08:34:39 10° NE 08:38:13 23° E 08:38:13 23° E
CZ-2D R/B 3.9 08:45:06 10° NE 08:48:55 21° E 08:48:55 21° E
Cosmos 962 Rocket 4.5 08:50:52 80° ENE 08:50:52 80° ENE 08:57:05 10° N
Cosmos 2297 Rocket 4.5 08:53:11 13° WNW 08:54:29 13° NW 08:57:10 10° NNW
Cosmos 2219 3.9 08:57:02 46° NW 08:57:02 46° NW 09:01:55 10° N
Cosmos 372 Rocket 4.4 09:02:01 60° N 09:02:01 60° N 09:06:16 10° NNE
NPP 4.4 09:01:20 10° NNE 09:06:15 44° E 09:06:15 44° E
CENTAUR R/B 3.7 09:07:50 26° WNW 09:09:04 28° NW 09:14:41 10° NNE
Cosmos 2341 Rocket 3.8 09:12:42 84° W 09:12:44 85° W 09:18:58 10° N
ADEOS II 3.7 09:10:25 10° NE 09:14:34 24° E 09:15:11 23° ESE
USA 238 DEB 3.9 09:16:15 48° ESE 09:16:21 48° ESE 09:22:28 10° NE
USA 238 3.9 09:16:17 47° ESE 09:16:24 47° ESE 09:22:31 10° NE
MOZ.5/SAFIR/RUBIN 5/SL-8 4.3 09:18:28 55° NE 09:18:28 55° NE 09:22:27 10° N
Cosmos 1937 Rocket 3.8 09:18:39 62° NNW 09:18:39 62° NNW 09:23:16 10° NNE
Cosmos 1898 Rocket 4.3 09:22:24 42° NW 09:22:24 42° NW 09:26:43 10° N
Cosmos 864 Rocket 4.3 09:22:44 79° SSW 09:23:09 88° W 09:29:31 10° N
Meteor 2-1 Rocket 4.1 09:19:00 10° N 09:24:55 88° E 09:25:02 86° SE
Cosmos 2263 Rocket 3.1 09:27:08 37° WNW 09:27:08 37° WNW 09:32:16 10° N
Resurs 1-4 Rocket 2.4 09:23:06 10° NNE 09:28:16 55° E 09:28:26 54° ESE
Cosmos 1821 Rocket 3.9 09:44:40 60° SSE 09:45:48 79° E 09:51:56 10° N
Cosmos 1437 Rocket 3.7 09:47:29 45° NE 09:47:29 45° NE 09:50:24 10° NNE
Cosmos 1844 Rocket 2.9 09:45:59 52° SE 09:46:41 56° ESE 09:52:09 10° NNE
Cosmos 2218 Rocket 4.1 09:48:21 53° WSW 09:48:55 55° W 09:55:00 10° N
ALOS 3.8 09:46:41 10° NE 09:50:35 27° E 09:51:42 24° ESE
Cosmos 2366 rocket 4.4 09:55:01 44° W 09:55:39 46° W 10:01:39 10° N
Cosmos 1544 Rocket 4.1 09:51:38 10° NNW 09:55:05 48° NW 09:55:05 48° NW
Cosmos 2228 3.2 09:54:49 10° N 09:58:31 64° NNW 09:58:31 64° NNW
Cosmos 1680 Rocket 3.3 09:54:33 10° NNW 09:59:46 87° WSW 10:00:26 69° S
NOSS 3-2 (C) 4.0 10:00:08 33° WNW 10:01:05 36° NW 10:06:25 10° NNE
Cosmos 2112 Rocket 3.9 09:56:53 10° NNW 10:02:04 82° ENE 10:03:19 53° SSE
Cosmos 1818 3.6 09:57:03 10° NNW 10:02:33 79° ENE 10:05:15 31° SE
MSX 4.0 10:01:59 10° N 10:07:35 55° WNW 10:08:36 49° WSW
COSMOS 2441 4.2 10:03:08 10° N 10:07:57 80° WNW 10:08:25 71° SW
USA 267 3.2 10:02:33 10° NE 10:09:07 82° SE 10:11:21 45° SW
SL-16 R/B 3.5 10:06:53 10° NW 10:10:12 25° WNW 10:10:12 25° WNW
Cosmos 1603 4.4 10:11:06 10° N 10:16:43 53° ENE 10:22:16 10° SE
IDEFIX/ARIANE 42P 3.4 10:13:38 10° N 10:18:19 34° WNW 10:18:57 33° W
SL-16 R/B 3.1 10:13:32 10° SSE 10:19:38 57° ENE 10:25:43 10° N
CZ-2C R/B 2.6 10:18:44 53° SSW 10:19:42 63° W 10:24:59 10° NNW
SEDSat Delta rocket 3.4 10:20:59 43° SE 10:20:59 43° SE 10:24:04 10° E
Cosmos 1934 Rocket 4.3 10:20:51 27° SSE 10:24:25 67° E 10:30:44 10° NNE
CZ-2C R/B 3.3 10:19:41 10° N 10:24:51 52° WNW 10:25:53 45° WSW
Cosmos 1943 3.0 10:20:53 10° NNW 10:26:29 76° WSW 10:29:23 30° S
CZ-2D R/B 2.7 10:24:11 10° N 10:29:05 40° WNW 10:30:12 35° W
Cosmos 1606 Rocket 3.6 10:27:08 10° N 10:31:35 79° E 10:33:16 37° SSE
Cosmos 921 Rocket 3.4 10:27:44 10° N 10:31:54 59° ENE 10:34:32 21° SSE
Mugunghwa Rocket 4.4 10:30:41 38° SSW 10:32:10 43° S 10:38:08 10° ESE
FENGYUN 3A 3.8 10:27:28 10° N 10:32:45 60° WNW 10:34:26 41° SW
ASTEX 1 3.3 10:31:48 36° S 10:33:50 90° E 10:38:43 10° N
Envisat 4.1 10:30:20 10° NNE 10:35:05 39° E 10:38:38 16° SSE
Iridium 2 4.1 10:40:08 35° N 10:40:08 35° N 10:41:43 10° N
Cosmos 1125 Rocket 3.5 10:38:11 35° S 10:40:27 82° ESE 10:45:45 10° NNE
CZ-2C R/B 3.9 10:41:02 10° NE 10:44:58 28° E 10:48:56 10° SSE
Cosmos 1726 Rocket 3.5 10:42:35 10° N 10:47:02 87° E 10:49:33 25° S
Cosmos 1812 3.4 10:43:40 10° N 10:47:07 46° E 10:49:38 17° SSE
Cosmos 2058 2.9 10:48:11 32° S 10:49:57 73° E 10:54:01 10° N
Cosmos 494 Rocket 3.9 10:46:55 10° NNW 10:52:10 77° WSW 10:57:05 12° S
ADEOS II 2.9 10:49:28 10° N 10:54:10 35° WNW 10:56:03 26° WSW
SAR-Lupe-4 3.6 10:52:27 10° N 10:55:58 60° WNW 10:56:48 44° SW
YAOGAN 6 4.3 10:55:26 10° NE 10:58:06 24° E 11:00:36 11° SSE
IRAS Rocket 4.2 10:54:24 10° N 10:59:53 71° WNW 11:03:12 24° SSW
USA 81 4.0 11:00:03 10° N 11:05:20 86° W 11:10:23 11° S
Resurs 1-4 Rocket 3.9 11:04:25 10° NNW 11:07:33 16° WNW 11:09:29 13° W
ATLAS 5 CENTAUR R/B 1.3 11:06:36 28° S 11:08:00 51° ESE 11:11:15 10° NE
UNK 3.6 11:03:41 10° S 11:08:14 81° WSW 11:12:50 10° NNW
GOES 2 Rocket 4.4 11:08:49 21° S 11:08:49 21° S 11:11:53 10° SSE
Iridium 4 Rocket 3.3 11:04:26 10° N 11:09:01 84° E 11:13:59 10° S
Meteor 1-28 Rocket 3.9 11:10:01 29° WSW 11:10:18 29° W 11:13:26 10° NW
Timation 2 Rocket 4.2 11:08:51 22° SW 11:13:13 61° WNW 11:19:37 10° NNE
Cosmos 1544 2.1 11:13:19 46° SSW 11:13:55 68° W 11:16:31 10° N
NOSS 2-2 (E) 3.5 11:12:35 22° S 11:14:41 51° ESE 11:17:48 10° NE
Delta 2 Rocket 3.2 11:18:27 11° W 11:22:16 80° SSW 11:26:42 10° ESE
Cosmos 2058 Rocket 3.0 11:21:05 10° NNW 11:25:29 66° W 11:29:48 10° S
Thor Agena Rocket 4.1 11:20:20 10° NNE 11:25:33 59° ESE 11:30:42 10° S
Cosmos 1758 Rocket 4.1 11:22:10 10° S 11:26:31 61° E 11:30:53 10° NNE
ALOS 3.6 11:23:56 10° NNW 11:27:36 24° WNW 11:29:59 16° WSW
NOAA 11 4.2 11:23:00 10° N 11:28:26 69° WNW 11:33:30 12° SSW
Cosmos 1844 Rocket 4.4 11:27:38 11° W 11:30:54 18° WNW 11:34:35 10° NNW
NOSS 2-3 (D) 3.2 11:29:16 17° SSW 11:32:03 78° ESE 11:35:46 10° NNE
Cosmos 2298 Rocket 4.2 11:29:42 16° SSW 11:33:55 57° WNW 11:39:10 10° N
METEOR-M 4.4 11:29:57 10° N 11:35:08 52° WNW 11:39:52 12° SSW
Cosmos 1500 4.2 11:38:28 10° SSE 11:41:43 40° E 11:44:57 10° NNE
USA 276 4.3 11:41:42 10° S 11:43:36 16° SE 11:45:29 10° E
Cosmos 1607 4.0 11:39:29 10° NW 11:45:43 59° WSW 11:51:47 10° SSE
Cosmos 1605 Rocket 4.5 11:41:46 10° SSW 11:47:30 42° W 11:53:19 10° N
Cosmos 1626 Rocket 4.0 11:44:00 10° SSW 11:48:10 45° W 11:52:25 10° N
NOSS 2-2 (C) 4.0 11:46:58 13° WSW 11:49:31 28° NW 11:52:17 10° N
Cosmos 2278 Rocket 3.0 11:47:33 10° S 11:53:01 52° ESE 11:58:30 10° NNE
Cosmos 1862 3.2 11:49:58 10° S 11:53:45 85° E 11:57:33 10° N
